GSAT0219 (GALILEO 23) (43566 NORAD) Tracking and Keplerian Element Data

This shows tracking and keplerian element data for the satellite.

Feedback or suggestion? Click here.




ElementValue
Catalog43566
NameGSAT0219 (GALILEO 23)
Epoch Orbit518
Epoch Day143.94693229
Epoch Year2019
RAAN51.7686
Inclination56.5477
Eccentricity0.0003842
Argument of Perigee300.6511
Mean Anonmoly59.3265
Mean Motion1.70475588
Decay Rate-8.5E-07
L11 43566U 18060C 19143.94693229 -.00000085 00000-0 00000+0 0 9994
L22 43566 56.5477 51.7686 0003842 300.6511 59.3265 1.70475588 5185

Live tracking and technical data element details for GSAT0219 (GALILEO 23) (NORAD 43566). GSAT0219 (GALILEO 23) can be tracked NOW for your location showing map with azimuth and elevation plus other details from your city location.

Track the satellite on the map from your city or location and see movement details for azimuth, elevation, latitude, longitude, range, height, and movement on the map or in text.







IsCatalogInMostPopularTable: catalog: 43566, numindb: 138
Update: records affected: 1



GetName: 43566 GSAT0219 (GALILEO 23)

Hit Count: updated at: Fri, 24 May 2019 21:23:01 GMT